Location: Musselshell
(46.5176°N, 108.0911°W)
Time: 10:48:50
(UTC+00:00)

EO-88 - Pass Details

Date: 03 July 2022
Orbit: 453 x 462 km, 97.3° (Epoch: 10 August)

Event Time Altitude Azimuth Distance (km) Brightness Sun altitude
Exits shadow 05:11:26 14° 206° (SSW) 1,392 ? -15.0°
Maximum altitude 05:13:54 30° 264° (W) 865 ? -15.2°
Drops below altitude 10° 05:17:02 10° 327° (NNW) 1,634 ? -15.4°
Sets 05:19:16 0° 338° (NNW) 2,514 ? -15.6°
